Location: Caltech
(34.1382°N, 118.1253°W)
Time: 19:00:54
(UTC-07:00)

Tiros 1 despin weight - All Passes

Search period start: 20 April 2014 00:00
Search period end: 30 April 2014 00:00
Orbit: 602 x 653 km, 48.2° (Epoch: 19 April)

Date Brightness Start Highest point End Pass type
(mag) Time Alt. Az. Time Alt. Az. Time Alt. Az.
20 Apr - 06:20:18 10° SSE 06:22:23 13° SE 06:24:27 10° E daylight
20 Apr - 07:59:10 10° SW 08:03:38 86° NW 08:08:06 10° NE daylight
20 Apr - 09:42:27 10° WNW 09:45:53 21° NNW 09:49:18 10° NNE daylight
20 Apr - 11:26:52 10° NNW 11:28:59 13° N 11:31:06 10° NNE daylight
20 Apr - 13:08:37 10° NNW 13:12:05 21° NNE 13:15:34 10° ENE daylight
20 Apr - 14:49:49 10° NW 14:54:20 86° NE 14:58:54 10° SE daylight
20 Apr - 16:33:22 10° W 16:35:37 14° SW 16:37:54 10° SSW daylight
21 Apr - 06:37:56 10° SSW 06:41:51 30° SE 06:45:45 10° ENE daylight
21 Apr - 08:19:15 10° WSW 08:23:30 42° NNW 08:27:45 10° NE daylight
21 Apr - 10:03:29 10° NW 10:06:10 16° NNW 10:08:51 10° NNE daylight
21 Apr - 11:46:57 10° NNW 11:49:24 14° N 11:51:51 10° NE daylight
21 Apr - 13:28:07 10° NW 13:32:12 34° NNE 13:36:20 10° E daylight
21 Apr - 15:09:46 10° WNW 15:14:02 43° SW 15:18:20 10° SSE daylight
22 Apr - 06:57:01 10° SW 07:01:28 70° SE 07:05:54 10° ENE daylight
22 Apr - 08:39:51 10° W 08:43:32 25° NNW 08:47:14 10° NNE daylight
22 Apr - 10:24:23 10° NNW 10:26:33 13° N 10:28:42 10° NNE daylight
22 Apr - 12:06:34 10° NNW 12:09:43 19° NNE 12:12:53 10° ENE daylight
22 Apr - 13:47:41 10° NW 13:52:08 65° NE 13:56:38 10° ESE daylight
22 Apr - 15:30:23 10° W 15:33:33 19° SW 15:36:45 10° S daylight
23 Apr - 05:36:18 10° S 05:39:46 22° SE 05:43:13 10° E visible
23 Apr - 07:16:51 10° WSW 07:21:15 55° NW 07:25:38 10° NE daylight
23 Apr - 09:00:46 10° WNW 09:03:45 17° NNW 09:06:43 10° NNE daylight
23 Apr - 10:44:43 10° NNW 10:46:57 13° N 10:49:11 10° NE daylight
23 Apr - 12:26:02 10° NW 12:29:53 28° NNE 12:33:45 10° E daylight
23 Apr - 14:07:28 10° WNW 14:11:52 59° SW 14:16:19 10° SE daylight
24 Apr - 05:54:57 10° SSW 05:59:18 50° SE 06:03:37 10° ENE daylight
24 Apr - 07:37:14 10° W 07:41:12 30° NNW 07:45:09 10° NE daylight
24 Apr - 09:21:46 10° NW 09:24:04 14° N 09:26:23 10° NNE daylight
24 Apr - 11:04:27 10° NNW 11:07:18 16° NNE 11:10:08 10° NE daylight
24 Apr - 12:45:32 10° NW 12:49:52 49° NNE 12:54:14 10° ESE daylight
24 Apr - 14:27:42 10° WNW 14:31:26 26° SW 14:35:12 10° S daylight
25 Apr - 04:34:54 10° SSE 04:37:39 16° SE 04:40:23 10° E visible
25 Apr - 06:14:30 10° WSW 06:18:59 74° NW 06:23:27 10° NE daylight
25 Apr - 07:58:02 10° WNW 08:01:19 20° NNW 08:04:35 10° NNE daylight
25 Apr - 09:42:21 10° NNW 09:44:27 13° N 09:46:34 10° NNE daylight
25 Apr - 11:23:56 10° NNW 11:27:30 23° NNE 11:31:06 10° ENE daylight
25 Apr - 13:05:11 10° NW 13:09:39 81° SW 13:14:10 10° SE daylight
25 Apr - 14:49:39 10° WSW 14:50:51 11° SW 14:52:03 10° SW daylight
26 Apr - 04:52:58 10° SSW 04:57:06 36° SE 05:01:13 10° ENE visible
26 Apr - 06:34:39 10° W 06:38:50 37° NNW 06:43:00 10° NE daylight
26 Apr - 08:19:02 10° NW 08:21:35 15° N 08:24:07 10° NNE daylight
26 Apr - 10:02:15 10° NNW 10:04:49 15° N 10:07:22 10° NE daylight
26 Apr - 11:43:22 10° NW 11:47:32 38° NNE 11:51:43 10° E daylight
26 Apr - 13:25:11 10° WNW 13:29:16 36° SW 13:33:23 10° SSE daylight
27 Apr - 03:34:09 10° SE 03:35:30 11° SE 03:36:51 10° ESE visible
27 Apr - 05:12:11 10° SW 05:16:43 83° SE 05:21:11 10° NE visible
27 Apr - 06:55:17 10° WNW 06:58:52 23° NNW 07:02:26 10° NNE daylight
27 Apr - 08:39:49 10° NNW 08:41:55 13° N 08:44:02 10° NNE daylight
27 Apr - 10:21:46 10° NNW 10:25:03 20° NNE 10:28:21 10° ENE daylight
27 Apr - 12:02:55 10° NW 12:07:23 75° NE 12:11:51 10° ESE daylight
27 Apr - 13:46:02 10° W 13:48:42 16° SW 13:51:24 10° SSW daylight
28 Apr - 03:51:06 10° S 03:54:54 26° SE 03:58:39 10° ENE visible
28 Apr - 05:32:06 10° WSW 05:36:28 48° NNW 05:40:49 10° NE visible
28 Apr - 07:16:13 10° NW 07:19:03 16° NNW 07:21:53 10° NNE daylight
28 Apr - 08:59:57 10° NNW 09:02:16 14° N 09:04:35 10° NE daylight
28 Apr - 10:41:11 10° NW 10:45:08 30° NNE 10:49:06 10° E daylight
28 Apr - 12:22:43 10° WNW 12:27:02 49° SW 12:31:21 10° SSE daylight
29 Apr - 04:09:57 10° SW 04:14:25 60° SE 04:18:51 10° ENE visible
29 Apr - 05:52:32 10° W 05:56:24 27° NNW 06:00:15 10° NE daylight
29 Apr - 07:37:07 10° NW 07:39:21 13° N 07:41:35 10° NNE daylight
29 Apr - 09:19:33 10° NNW 09:22:33 17° NNE 09:25:32 10° ENE daylight
29 Apr - 11:00:39 10° NW 11:05:02 56° NE 11:09:25 10° ESE daylight
29 Apr - 12:43:05 10° W 12:46:30 22° SW 12:49:56 10° S daylight
